Weather History for KNJM - July, 2013

Change the Weather History Date:

Monday, July 15, 2013

  Actual Average (KNKT) Record (KNKT)
Temperature  
Mean Temperature 80 °F -  
Max Temperature 86 °F 84 °F 91 °F (2006)
Min Temperature 75 °F 68 °F 62 °F (2001)
Cooling Degree Days 16    
Growing Degree Days 30 (Base 50)    
Moisture  
Dew Point 73 °F    
Average Humidity 77    
Maximum Humidity 90    
Minimum Humidity 59    
Precipitation  
Precipitation 0.00 in - - ()
Sea Level Pressure  
Sea Level Pressure 30.29 in    
Wind  
Wind Speed 5 mph (East)    
Max Wind Speed 10 mph    
Max Gust Speed -    
Visibility 10 miles    
Events      
Averages and records for this station are not official NWS values.
T = Trace of Precipitation, MM = Missing Value Source: NWS Daily Summary

Daily Weather History Graph

Daily Weather History Graph

Search for Another Location

Airport or City:

Trip Planner

Search our weather history database for the weather conditions in past years. The results will help you decide how hot, cold, wet, or windy it might be!

Date:

Astronomy

Jul. 15, 2013 Rise Set
Actual Time 6:06 AM EDT 8:21 PM EDT
Civil Twilight 5:37 AM EDT 8:50 PM EDT
Nautical Twilight 5:02 AM EDT 9:25 PM EDT
Astronomical Twilight 4:23 AM EDT 10:03 PM EDT
Moon 1:03 PM EDT (7/15) No Moon Set
Length of Visible Light 15h 12m
Length of Day
14h 15m
Waxing Crescent, 45% of the Moon is Illuminated
Jul 15
Waxing Crescent
Jul 15
First Quarter
Jul 22
Full
Jul 29
Last Quarter
Aug 6
New

Hourly Weather History & Observations

Time (EDT) Temp. Heat Index Dew Point Humidity Pressure Visibility Wind Dir Wind Speed Gust Speed Precip Events Conditions
12:12 AM 78.8 °F - 73.4 °F 83% 30.28 in 10.0 mi NE 5.8 mph - N/A   Mostly Cloudy
12:57 AM 78.1 °F - 73.0 °F 84% 30.29 in 10.0 mi NE 3.5 mph - N/A   Mostly Cloudy
1:12 AM 78.8 °F - 73.4 °F 83% 30.28 in 10.0 mi NE 3.5 mph - N/A   Partly Cloudy
1:57 AM 77.0 °F - 72.0 °F 84% 30.29 in 10.0 mi NE 4.6 mph - N/A   Partly Cloudy
2:32 AM 78.8 °F - 73.4 °F 83% 30.27 in 10.0 mi ENE 4.6 mph - N/A   Mostly Cloudy
2:57 AM 77.0 °F - 72.0 °F 84% 30.28 in 10.0 mi NNE 3.5 mph - N/A   Mostly Cloudy
3:08 AM 77.0 °F - 71.6 °F 83% 30.26 in 10.0 mi NE 4.6 mph - N/A   Partly Cloudy
3:57 AM 75.9 °F - 72.0 °F 87% 30.28 in 10.0 mi NNE 3.5 mph - N/A   Clear
4:57 AM 75.0 °F - 72.0 °F 90% 30.28 in 10.0 mi NNE 3.5 mph - N/A   Clear
5:57 AM 75.0 °F - 72.0 °F 90% 30.29 in 10.0 mi NNE 3.5 mph - N/A   Clear
6:57 AM - - - N/A% 30.31 in 9.0 mi North 3.5 mph - N/A   Clear
7:57 AM 79.0 °F - 73.0 °F 82% 30.30 in 10.0 mi NNE 3.5 mph - N/A   Clear
8:57 AM 82.0 °F 87.9 °F 73.9 °F 76% 30.31 in 10.0 mi East 8.1 mph - N/A   Scattered Clouds
9:57 AM 84.0 °F 89.6 °F 72.0 °F 67% 30.31 in 10.0 mi ESE 8.1 mph - N/A   Scattered Clouds
10:57 AM 84.0 °F 89.0 °F 71.1 °F 65% 30.32 in 10.0 mi ESE 8.1 mph - N/A   Scattered Clouds
11:57 AM 86.0 °F 90.7 °F 70.0 °F 59% 30.32 in 10.0 mi SE 6.9 mph - N/A   Scattered Clouds
12:57 PM 84.9 °F 92.1 °F 73.9 °F 69% 30.31 in 10.0 mi SSE 8.1 mph - N/A   Scattered Clouds
1:57 PM 84.9 °F 93.3 °F 75.0 °F 72% 30.30 in 10.0 mi SE 10.4 mph - N/A   Scattered Clouds
2:46 PM 84.2 °F 90.9 °F 73.4 °F 70% 30.29 in 10.0 mi SSE 10.4 mph - N/A   Scattered Clouds
2:57 PM 84.0 °F 90.2 °F 73.0 °F 69% 30.30 in 10.0 mi SE 10.4 mph - N/A   Scattered Clouds
3:57 PM 84.9 °F 91.4 °F 73.0 °F 67% 30.29 in 10.0 mi SE 8.1 mph - N/A   Scattered Clouds
4:57 PM 84.9 °F 90.7 °F 72.0 °F 65% 30.28 in 10.0 mi SE 10.4 mph - N/A   Scattered Clouds
6:57 PM 82.9 °F 88.8 °F 73.0 °F 72% 30.27 in 10.0 mi SE 6.9 mph - N/A   Scattered Clouds
7:57 PM 82.0 °F 87.4 °F 73.0 °F 74% 30.27 in 10.0 mi SE 4.6 mph - N/A   Scattered Clouds
8:57 PM 80.1 °F 84.2 °F 73.0 °F 79% 30.27 in 10.0 mi SE 4.6 mph - N/A   Scattered Clouds
9:57 PM 80.1 °F 84.2 °F 73.0 °F 79% 30.28 in 10.0 mi SE 3.5 mph - N/A   Scattered Clouds
10:57 PM 80.1 °F 84.5 °F 73.9 °F 81% 30.29 in 10.0 mi SSE 4.6 mph - N/A   Clear
11:57 PM 80.1 °F 84.2 °F 73.0 °F 79% 30.28 in 10.0 mi SSE 3.5 mph - N/A   Clear